Location: Kershaw
(34.5481°N, 80.5823°W)
Time: 14:57:12
(UTC+00:00)

Courier 1B Rocket - Pass Details

Date: 02 October 2022
Orbit: 920 x 1202 km, 28.2° (Epoch: 08 December)

Event Time Altitude Azimuth Distance (km) Brightness Sun altitude
Rises 02:40:15 0° 259° (W) 3,636 8.5 -43.1°
Reaches altitude 10° 02:43:01 10° 254° (WSW) 2,660 7.6 -43.6°
Enters shadow 02:43:18 11° 253° (WSW) 2,564 7.5 -43.7°
Maximum altitude 02:49:06 48° 181° (S) 1,181 - -44.6°
Drops below altitude 10° 02:55:03 10° 109° (ESE) 2,604 - -45.6°
Sets 02:57:43 0° 103° (ESE) 3,553 - -46.1°
